[[{"header":{"parameterUnit":"m.s-1","parameterCategory":1,"la1":30.2991,"la2":30.254,"lo1":-89.0895,"lo2":-89.0444,"dy":0.0017,"dx":0.0017,"nx":28,"ny":28,"refTime":"2025-05-26T21:00:00:Z","depth":0,"parameterNumber":2,"parameterNumberName":"U-component_of_WINDS"},"data":[0,0,0,0,0,0,0,0,0,0,0,0,0,0,0,0,0,0,0,0,0,0,0,0,0,0,0,0,0,0,0,0,0,0,0,0,0,0,0,0,0,0,0,0,0,0,0,0,0,0,0,0,0,0,0,0,0,0,-0.1782,-0.178,0,-0.1601,-0.1599,-0.1597,-0.1512,-0.1512,-0.1512,-0.1512,-0.1321,-0.1316,-0.1311,0,0,0,0,0,0,0,0,0,0,0,0,0,-0.205,-0.2045,-0.1783,-0.178,-0.1778,-0.1601,-0.1599,-0.1596,-0.1512,-0.1512,-0.1512,-0.1512,-0.1323,-0.1317,-0.131,0,0,0,0,0,0,0,0,0,0,0,0,0,-0.1908,-0.2044,-0.1783,-0.1715,-0.1707,-0.1602,-0.1599,-0.1596,-0.1512,-0.1512,-0.1512,-0.1513,-0.1325,-0.1317,-0.1309,-0.1257,0,0,-0.1285,-0.1282,0,0,0,0,0,0,0,0,-0.1916,-0.1898,-0.1727,-0.1719,-0.171,-0.1579,-0.1623,-0.1482,-0.1512,-0.1586,-0.1512,-0.1513,-0.1406,-0.1392,-0.1357,-0.1248,-0.124,-0.1285,-0.128,-0.1277,-0.1274,0,0,0,0,0,0,0,-0.1926,-0.1905,-0.171,-0.1725,-0.1714,-0.1691,-0.1671,-0.1596,-0.1497,-0.1579,-0.1573,-0.1553,-0.1402,-0.1365,-0.1352,-0.1237,-0.1285,-0.1278,-0.1273,-0.127,-0.1072,-0.1072,0,0,0,0,0,0,-0.1947,-0.1914,-0.1716,-0.1705,-0.1816,-0.1686,-0.1664,-0.1621,-0.1498,-0.1479,-0.1553,-0.1549,-0.1378,-0.1361,-0.1345,-0.1273,-0.1277,-0.1269,-0.1265,-0.1073,-0.1072,-0.1071,0,0,0,0,0,0,-0.1954,-0.1931,-0.1723,-0.1808,-0.1779,-0.1681,-0.1634,-0.1617,-0.158,-0.1478,-0.1459,-0.1534,-0.1378,-0.1356,-0.1279,-0.1266,-0.1266,-0.1259,-0.1073,-0.1072,-0.1072,-0.1131,0,0,0,0,0,0,-0.1962,-0.1933,-0.1914,-0.1808,-0.1775,-0.1663,-0.1633,-0.1614,-0.1568,-0.1562,-0.1455,-0.1437,-0.1376,-0.1291,-0.1271,-0.1255,-0.1253,-0.1074,-0.1073,-0.1072,-0.113,-0.1133,-0.1135,0,0,0,0,0,-0.1972,-0.1937,-0.1914,-0.189,-0.1749,-0.1662,-0.1643,-0.1576,-0.1567,-0.1545,-0.1479,-0.144,-0.1271,-0.1284,-0.1261,-0.1242,-0.1075,-0.1073,-0.1072,-0.1129,-0.1132,-0.1135,0,0,0,0,0,0,-0.2043,-0.1922,-0.1894,-0.1825,-0.1755,-0.1648,-0.1619,-0.1582,-0.1511,-0.1508,-0.1425,-0.1402,-0.1332,-0.1279,-0.1296,-0.1183,-0.1169,-0.1163,-0.122,-0.1222,-0.1225,-0.1238,-0.1246,0,0,0,0,0,-0.2051,-0.1992,-0.1889,-0.1838,-0.1804,-0.1718,-0.1678,-0.1632,-0.1554,-0.1524,-0.1452,-0.1377,-0.1306,-0.1261,-0.1191,-0.1122,-0.1096,-0.1097,-0.11,-0.1102,-0.1098,-0.1055,-0.1054,-0.1067,-0.1067,-0.1067,0,0,-0.2066,-0.1993,-0.1961,-0.185,-0.179,-0.1729,-0.1693,-0.1631,-0.1584,-0.1513,-0.1436,-0.1381,-0.1292,-0.1218,-0.1182,-0.1172,-0.1088,-0.1101,-0.1104,-0.1097,-0.1054,-0.1053,-0.1052,-0.1066,-0.1067,-0.1067,0,0,-0.2063,-0.2003,-0.1952,-0.1893,-0.1803,-0.1746,-0.1734,-0.1632,-0.1593,-0.1515,-0.1461,-0.1403,-0.1284,-0.1222,-0.1175,-0.1147,-0.1107,-0.1126,-0.1137,-0.1097,-0.1096,-0.1095,-0.1083,-0.1079,-0.1122,-0.1122,-0.1122,0,-0.2093,-0.2,-0.1931,-0.1871,-0.1823,-0.1758,-0.1705,-0.165,-0.1541,-0.1509,-0.15,-0.1348,-0.1283,-0.1193,-0.1187,-0.1151,-0.1133,-0.1137,-0.1102,-0.11,-0.1098,-0.1085,-0.1081,-0.1125,-0.1124,-0.1124,-0.1124,0,-0.204,-0.1977,-0.1947,-0.1845,-0.1793,-0.1737,-0.1657,-0.1613,-0.1571,-0.1515,-0.1434,-0.1355,-0.1266,-0.1242,-0.12,-0.1145,-0.1141,-0.1119,-0.1102,-0.11,-0.1087,-0.1082,-0.1128,-0.1127,-0.1127,-0.1126,0,0,-0.2077,-0.1937,-0.1927,-0.1878,-0.1774,-0.1722,-0.1662,-0.1577,-0.154,-0.1467,-0.1413,-0.1313,-0.1291,-0.1237,-0.1188,-0.1153,-0.1133,-0.1133,-0.113,-0.1134,-0.1065,-0.1082,-0.1078,-0.1107,-0.1106,-0.1105,-0.1072,0,-0.2058,-0.1949,-0.1884,-0.1801,-0.1739,-0.1677,-0.1624,-0.1553,-0.1498,-0.1436,-0.1374,-0.1305,-0.1282,-0.1249,-0.1211,-0.1144,-0.1118,-0.1145,-0.1053,-0.1051,-0.1077,-0.1071,-0.1089,-0.1062,-0.1067,-0.1066,-0.1065,0,-0.2021,-0.195,-0.1861,-0.1762,-0.1733,-0.1688,-0.1603,-0.1546,-0.1463,-0.1425,-0.1366,-0.1316,-0.1248,-0.1238,-0.1141,-0.1162,-0.112,-0.1081,-0.1078,-0.1066,-0.1057,-0.1057,-0.1052,-0.1047,-0.1057,-0.1057,-0.1058,0,-0.2054,-0.1936,-0.1867,-0.1828,-0.1711,-0.168,-0.1629,-0.1547,-0.1499,-0.1425,-0.1393,-0.1312,-0.1266,-0.1203,-0.1132,-0.1132,-0.1042,-0.1027,-0.1006,-0.1008,-0.0989,-0.0991,-0.0975,-0.0965,-0.0965,-0.0965,-0.0966,0,-0.2038,-0.1986,-0.188,-0.1838,-0.1776,-0.1701,-0.1642,-0.1586,-0.1513,-0.1456,-0.1397,-0.1345,-0.1255,-0.1191,-0.1135,-0.1062,-0.1043,-0.1008,-0.0994,-0.1013,-0.1017,-0.0983,-0.0983,-0.0964,-0.0964,-0.0965,-0.0965,0,-0.2064,-0.1992,-0.1912,-0.1808,-0.1781,-0.174,-0.1649,-0.1604,-0.1546,-0.1476,-0.1455,-0.1363,-0.1284,-0.1208,-0.1102,-0.1064,-0.0991,-0.0973,-0.102,-0.1011,-0.0995,-0.0997,-0.0956,-0.0946,-0.0945,-0.0945,-0.0945,0,-0.2059,-0.2017,-0.1908,-0.1867,-0.1818,-0.1752,-0.1703,-0.1627,-0.1579,-0.1481,-0.1447,-0.1365,-0.1295,-0.1172,-0.1095,-0.1013,-0.0991,-0.0982,-0.0978,-0.0998,-0.0988,-0.0991,-0.0986,-0.0984,-0.0984,-0.0985,-0.0985,0,-0.2055,-0.2021,-0.1954,-0.1874,-0.1818,-0.175,-0.1681,-0.165,-0.156,-0.1508,-0.1428,-0.1374,-0.1267,-0.1185,-0.1094,-0.1039,-0.0996,-0.0987,-0.0978,-0.0996,-0.1024,-0.1007,-0.1024,-0.0988,-0.0988,-0.0988,-0.0987,-0.0987,-0.2064,-0.2023,-0.194,-0.1866,-0.1806,-0.1742,-0.1695,-0.1631,-0.1563,-0.1471,-0.1429,-0.1348,-0.1264,-0.1138,-0.1085,-0.1018,-0.1008,-0.0995,-0.0991,-0.0988,-0.0992,-0.1037,-0.1002,-0.1002,-0.1001,-0.1001,-0.1001,0,-0.2055,-0.1999,-0.1932,-0.1837,-0.1779,-0.1745,-0.1666,-0.1619,-0.1549,-0.1475,-0.1408,-0.1315,-0.1235,-0.1151,-0.1066,-0.1029,-0.1007,-0.1009,-0.101,-0.0997,-0.1007,-0.1023,-0.1028,-0.1028,-0.1028,-0.1028,-0.1028,-0.1028,-0.2044,-0.1973,-0.1929,-0.1826,-0.1769,-0.169,-0.1648,-0.1587,-0.1528,-0.1427,-0.1361,-0.1308,-0.1229,-0.1137,-0.1062,-0.1039,-0.1009,-0.1017,-0.0988,-0.0999,-0.0997,-0.0995,-0.101,-0.1011,-0.1011,-0.0983,-0.0983,-0.0983]},{"header":{"parameterUnit":"m.s-1","parameterCategory":1,"la1":30.2991,"la2":30.254,"lo1":-89.0895,"lo2":-89.0444,"dy":0.0017,"dx":0.0017,"nx":28,"ny":28,"refTime":"2025-05-26T21:00:00:Z","depth":0,"parameterNumber":3,"parameterNumberName":"V-component_of_WINDS"},"data":[0,0,0,0,0,0,0,0,0,0,0,0,0,0,0,0,0,0,0,0,0,0,0,0,0,0,0,0,0,0,0,0,0,0,0,0,0,0,0,0,0,0,0,0,0,0,0,0,0,0,0,0,0,0,0,0,0,0,3.8583,3.8583,0,3.8579,3.8579,3.8579,3.856,3.856,3.856,3.8559,3.8555,3.8555,3.8556,0,0,0,0,0,0,0,0,0,0,0,0,0,3.8573,3.8574,3.8583,3.8583,3.8583,3.8579,3.8579,3.8579,3.8561,3.856,3.8559,3.8559,3.8555,3.8555,3.8556,0,0,0,0,0,0,0,0,0,0,0,0,0,3.8574,3.8574,3.8583,3.8573,3.8572,3.8579,3.8579,3.8579,3.8561,3.856,3.8559,3.8559,3.8555,3.8555,3.8556,3.8572,0,0,3.8557,3.8557,0,0,0,0,0,0,0,0,3.8574,3.8575,3.8575,3.8574,3.8573,3.857,3.8574,3.8576,3.8561,3.8565,3.8559,3.8558,3.856,3.856,3.8561,3.8571,3.8571,3.8557,3.8557,3.8558,3.8558,0,0,0,0,0,0,0,3.8574,3.8575,3.8581,3.8575,3.8573,3.8569,3.8568,3.8575,3.8566,3.8565,3.8563,3.8563,3.856,3.8561,3.8561,3.8571,3.8557,3.8557,3.8558,3.8558,3.8594,3.8594,0,0,0,0,0,0,3.8576,3.8575,3.8581,3.8581,3.8572,3.8569,3.8569,3.8571,3.8566,3.8565,3.8564,3.8562,3.856,3.856,3.8561,3.8578,3.8558,3.8558,3.8558,3.8593,3.8594,3.8595,0,0,0,0,0,0,3.8576,3.8576,3.8582,3.8578,3.8578,3.857,3.8573,3.8571,3.8572,3.8566,3.8564,3.8566,3.856,3.856,3.8569,3.8578,3.8558,3.8559,3.8592,3.8593,3.8594,3.8614,0,0,0,0,0,0,3.8575,3.8577,3.8583,3.8578,3.8578,3.859,3.8574,3.8572,3.8573,3.8571,3.8567,3.8566,3.8559,3.8568,3.8569,3.8578,3.8559,3.8591,3.8593,3.8594,3.8613,3.8616,3.8618,0,0,0,0,0,3.8575,3.8588,3.8583,3.8584,3.8586,3.8591,3.8591,3.8583,3.8574,3.858,3.8576,3.8566,3.8577,3.8569,3.857,3.8579,3.8591,3.8592,3.8594,3.8611,3.8615,3.8618,0,0,0,0,0,0,3.8594,3.8588,3.8581,3.8594,3.8593,3.8587,3.8594,3.8587,3.8588,3.8587,3.8576,3.8576,3.8586,3.8584,3.8575,3.8594,3.8582,3.8584,3.8595,3.8599,3.8602,3.8602,3.8559,0,0,0,0,0,3.86,3.8604,3.8598,3.861,3.861,3.8602,3.8604,3.8598,3.8597,3.8596,3.8592,3.8591,3.8594,3.8597,3.8599,3.8613,3.8611,3.8619,3.8622,3.8625,3.8626,3.8633,3.8636,3.86,3.86,3.86,0,0,3.8611,3.8608,3.8612,3.8613,3.8612,3.8617,3.8602,3.8608,3.8611,3.8597,3.8605,3.8602,3.86,3.8612,3.8616,3.861,3.8636,3.8627,3.8629,3.8629,3.8635,3.8638,3.8641,3.8601,3.8601,3.86,0,0,3.8634,3.8633,3.8642,3.8641,3.8639,3.8634,3.8636,3.8632,3.863,3.8638,3.8627,3.8631,3.8637,3.8636,3.8636,3.8659,3.8651,3.866,3.8675,3.8682,3.8684,3.8687,3.8695,3.8698,3.8662,3.8662,3.8662,0,3.8649,3.8656,3.8647,3.8654,3.8655,3.8642,3.8651,3.8651,3.865,3.865,3.8644,3.865,3.8648,3.8659,3.8664,3.8665,3.8667,3.866,3.8685,3.8687,3.8689,3.8697,3.87,3.8663,3.8663,3.8663,3.8663,0,3.8673,3.8678,3.8686,3.8685,3.8687,3.8695,3.8687,3.869,3.8684,3.868,3.8688,3.8685,3.8687,3.8689,3.8683,3.8699,3.8695,3.8687,3.8674,3.8694,3.8701,3.8703,3.8665,3.8664,3.8664,3.8664,0,0,3.8708,3.8703,3.8705,3.8705,3.8702,3.8706,3.8713,3.8715,3.8717,3.8717,3.8722,3.8728,3.872,3.872,3.8714,3.872,3.8738,3.8711,3.8711,3.8716,3.8754,3.876,3.8764,3.8732,3.8733,3.8733,3.8754,0,3.8729,3.8741,3.8734,3.8747,3.8751,3.8739,3.8746,3.8744,3.8741,3.8744,3.874,3.8743,3.8733,3.8733,3.8739,3.8735,3.8745,3.8733,3.8737,3.8737,3.8737,3.8767,3.8773,3.8793,3.8757,3.8757,3.8758,0,3.8756,3.8757,3.877,3.8767,3.8768,3.8774,3.8775,3.8778,3.8776,3.8773,3.8774,3.8766,3.8773,3.8761,3.877,3.8762,3.8763,3.8761,3.8762,3.8761,3.8748,3.8767,3.8799,3.8802,3.8762,3.8761,3.8761,0,3.8779,3.8784,3.8792,3.8792,3.8788,3.8792,3.8791,3.8789,3.879,3.8791,3.8792,3.8794,3.8794,3.8796,3.8789,3.8781,3.8798,3.8786,3.8796,3.8796,3.8799,3.8799,3.8832,3.8801,3.8801,3.8801,3.8801,0,3.8803,3.8812,3.8802,3.8808,3.8817,3.8808,3.8817,3.8815,3.8813,3.8817,3.8808,3.8812,3.8803,3.8806,3.8801,3.8809,3.8809,3.8807,3.8805,3.8807,3.8808,3.8808,3.8806,3.8802,3.8802,3.8801,3.8801,0,3.883,3.8824,3.8833,3.8828,3.8827,3.8834,3.883,3.8835,3.8831,3.8837,3.8837,3.8831,3.8834,3.8828,3.883,3.8827,3.8838,3.8834,3.8838,3.8837,3.8847,3.8846,3.888,3.8884,3.8851,3.8852,3.8852,0,3.8846,3.8852,3.8848,3.8851,3.885,3.8854,3.8855,3.8847,3.8849,3.8848,3.8853,3.8855,3.8857,3.8863,3.8858,3.886,3.8856,3.8868,3.8857,3.8859,3.8856,3.8856,3.8856,3.8871,3.8871,3.8871,3.8872,0,3.8874,3.8871,3.8873,3.8875,3.8877,3.8878,3.8878,3.8881,3.8872,3.8875,3.8878,3.888,3.8882,3.8885,3.8886,3.8884,3.8877,3.8875,3.8878,3.888,3.8882,3.888,3.8844,3.8875,3.8874,3.8874,3.8874,3.8874,3.8895,3.89,3.8898,3.8902,3.8901,3.8901,3.8905,3.8902,3.8905,3.8906,3.8902,3.8906,3.8905,3.8905,3.8904,3.8908,3.8902,3.8906,3.8906,3.8907,3.8909,3.8882,3.8908,3.8908,3.8908,3.8907,3.8907,0,3.8923,3.8921,3.8924,3.8925,3.8927,3.892,3.892,3.8923,3.8927,3.8926,3.8928,3.8932,3.8934,3.893,3.8932,3.8936,3.8932,3.8936,3.8936,3.8936,3.8913,3.8911,3.8939,3.8939,3.8939,3.8939,3.8939,3.8939,3.8937,3.8945,3.8942,3.8949,3.8948,3.8952,3.8953,3.8953,3.8952,3.8957,3.8959,3.8957,3.8955,3.8956,3.8958,3.8957,3.8958,3.8964,3.8961,3.894,3.8937,3.8934,3.8932,3.8964,3.8964,3.8983,3.8983,3.8983]}]]